Location: Cucq
(50.4773°N, 1.6202°E)
Time: 16:11:14
(UTC+00:00)

Cosmos 158 Rocket - Pass Details

Date: 07 August 2020
Orbit: 698 x 794 km, 74.0° (Epoch: 25 September)

Event Time Altitude Azimuth Distance (km) Brightness Sun altitude
Rises 02:47:15 0° 331° (NNW) 3,272 7.5 -13.7°
Reaches altitude 10° 02:49:43 10° 325° (NW) 2,350 6.7 -13.5°
Maximum altitude 02:54:47 45° 255° (WSW) 1,074 4.4 -12.9°
Drops below altitude 10° 02:59:53 10° 184° (S) 2,357 6.1 -12.4°
Enters shadow 03:00:24 - 182° (S) 2,550 6.3 -12.3°
